Overview Statistics Trail Chart Weather Telemetry Raw packets
 

This is the latest recevied weather packets stored in our database for station/object PU5BHV. If no packets are shown the sender has not sent any weather packets the latest 10 day(s).

<< 48 49 50 51 52 53 54 >>
Time Temp. Humidity Pressure Rain* Wind** Luminosity Snow
1777291581 24.44° C 67% 1015.1 hPa 0 mm - 308 W/m² -
1777291278 24.44° C 71% 1014.9 hPa 0 mm - 296 W/m² -
1777290975 23.89° C 75% 1014.7 hPa 0 mm - 286 W/m² -
1777290672 22.78° C 82% 1014.7 hPa 0 mm - 258 W/m² -
1777290369 22.78° C 87% 1014.7 hPa 0 mm - 261 W/m² -
1777290064 22.22° C 85% 1014.5 hPa 0 mm - 239 W/m² -
1777289761 21.67° C 96% 1014.4 hPa 0 mm - 219 W/m² -
1777289456 20.56° C 97% 1014.5 hPa 0 mm - 161 W/m² -
1777289153 20.56° C 99% 1014.6 hPa 0 mm - 174 W/m² -
1777288850 19.44° C 99% 1014.4 hPa 0 mm - 157 W/m² -
1777288546 19.44° C 99% 1014.7 hPa 0 mm - 127 W/m² -
1777288243 19.44° C 99% 1014.5 hPa 0 mm - 128 W/m² -
1777287939 18.89° C 99% 1014.3 hPa 0 mm - 101 W/m² -
1777287636 19.44° C 99% 1014.4 hPa 0 mm - 73 W/m² -
1777287332 19.44° C 99% 1014.2 hPa 0 mm - 79 W/m² -
1777287029 19.44° C 99% 1014.1 hPa 0 mm - 55 W/m² -
1777286726 20° C 99% 1014.1 hPa 0 mm - 52 W/m² -
1777286424 18.89° C 99% 1014.2 hPa 0 mm - 41 W/m² -
1777286120 18.89° C 99% 1014.1 hPa 0 mm - 39 W/m² -
1777285818 18.33° C 99% 1013.9 hPa 0 mm - 30 W/m² -
1777285515 18.33° C 99% 1013.8 hPa 0 mm - 22 W/m² -
1777285212 18.33° C 99% 1014.1 hPa 0 mm - 17 W/m² -
1777284910 18.33° C 99% 1013.7 hPa 0 mm - 13 W/m² -
1777284607 18.33° C 99% 1013.3 hPa 0 mm - 12 W/m² -
1777284303 18.33° C 99% 1013.1 hPa 0 mm - 10 W/m² -

* Rain latest hour (hover to see other rain measurements)
** Current wind speed in m/s (hover to see current wind gust speed)